Weather History for TNCC - April, 2014

Change the Weather History Date:

Monday, April 7, 2014

  Actual Average Record
Temperature  
Mean Temperature 83 °F -  
Max Temperature 87 °F 86 °F 91 °F (2007)
Min Temperature 79 °F 76 °F 75 °F (2008)
Cooling Degree Days 18    
Growing Degree Days 33 (Base 50)    
Moisture  
Dew Point 75 °F    
Average Humidity 77    
Maximum Humidity 84    
Minimum Humidity 61    
Precipitation  
Precipitation 0.00 in 0.03 in - ()
Sea Level Pressure  
Sea Level Pressure 29.92 in    
Wind  
Wind Speed 14 mph ()    
Max Wind Speed 23 mph    
Max Gust Speed 37 mph    
Visibility 8.3 miles    
Events Rain    
Averages and records for this station are not official NWS values.
T = Trace of Precipitation, MM = Missing Value Source: Averaged Metar Reports

Daily Weather History Graph

Daily Weather History Graph

Search for Another Location

Airport or City:

Trip Planner

Search our weather history database for the weather conditions in past years. The results will help you decide how hot, cold, wet, or windy it might be!

Date:

Astronomy

Apr. 07, 2014 Rise Set
Actual Time 6:28 AM AST 6:47 PM AST
Civil Twilight 6:07 AM AST 7:08 PM AST
Nautical Twilight 5:42 AM AST 7:33 PM AST
Astronomical Twilight 5:17 AM AST 7:58 PM AST
Moon 12:47 PM AST (4/7) 12:54 AM AST (4/7)
Length of Visible Light 13h 01m
Length of Day
12h 18m
First Quarter, 53% of the Moon is Illuminated
Apr 7
First Quarter
Apr 15
Full
Apr 22
Last Quarter
Apr 29
New
May 6
First Quarter

Hourly Weather History & Observations

Time (AST) Temp. Heat Index Dew Point Humidity Pressure Visibility Wind Dir Wind Speed Gust Speed Precip Events Conditions
12:00 AM 80.6 °F 86.2 °F 75.2 °F 84% 29.95 in 6.2 mi ESE 11.5 mph - N/A   Mostly Cloudy
1:00 AM 80.6 °F 86.2 °F 75.2 °F 84% 29.92 in 6.2 mi ESE 15.0 mph - N/A Rain Light Rain Showers
2:00 AM 80 °F - 74 °F 77% 29.92 in 16 mi ESE 11.5 mph - -   Scattered Clouds
2:00 AM 78.8 °F - 73.4 °F 83% 29.92 in 6.2 mi ESE 16.1 mph - N/A   Partly Cloudy
3:00 AM 80.6 °F 86.2 °F 75.2 °F 84% 29.89 in 6.2 mi ESE 15.0 mph - N/A   Scattered Clouds
4:00 AM 80.6 °F 86.2 °F 75.2 °F 84% 29.89 in 6.2 mi ESE 16.1 mph - N/A   Scattered Clouds
5:00 AM 80 °F - 75 °F 79% 29.92 in 16 mi ESE 17.3 mph - -   Partly Cloudy
5:00 AM 80.6 °F 86.2 °F 75.2 °F 84% 29.92 in 6.2 mi ESE 16.1 mph - N/A   Scattered Clouds
6:00 AM 80.6 °F 86.2 °F 75.2 °F 84% 29.92 in 6.2 mi ESE 12.7 mph - N/A   Scattered Clouds
7:00 AM 80.6 °F 86.2 °F 75.2 °F 84% 29.92 in 6.2 mi ESE 16.1 mph - N/A   Scattered Clouds
8:00 AM 82 °F - 74 °F 72% 29.96 in 14 mi ESE 17.3 mph - -   Mostly Cloudy
8:00 AM 82.4 °F 89.5 °F 75.2 °F 79% 29.95 in 6.2 mi ESE 17.3 mph - N/A   Mostly Cloudy
9:00 AM 82.4 °F 90.9 °F 77.0 °F 84% 29.98 in 6.2 mi ESE 13.8 mph - N/A   Mostly Cloudy
10:00 AM 86.0 °F 95.1 °F 75.2 °F 70% 29.98 in 6.2 mi ESE 19.6 mph - N/A   Mostly Cloudy
11:00 AM 86 °F - 74 °F 61% 29.98 in 14 mi ESE 23.0 mph - -   Mostly Cloudy
11:00 AM 86.0 °F 95.1 °F 75.2 °F 70% 29.98 in 6.2 mi ESE 23.0 mph 36.8 mph N/A   Mostly Cloudy
12:00 PM 86.0 °F 93.4 °F 73.4 °F 66% 29.95 in 6.2 mi East 21.9 mph - N/A   Mostly Cloudy
1:00 PM 86.0 °F 93.4 °F 73.4 °F 66% 29.95 in 6.2 mi East 20.7 mph - N/A   Scattered Clouds
2:00 PM 86.0 °F 93.4 °F 73.4 °F 66% 29.89 in 6.2 mi East 21.9 mph - N/A   Partly Cloudy
3:00 PM 86.0 °F 95.1 °F 75.2 °F 70% 29.89 in 6.2 mi East 19.6 mph - N/A   Scattered Clouds
4:00 PM 86.0 °F 95.1 °F 75.2 °F 70% 29.86 in 6.2 mi East 19.6 mph - N/A   Scattered Clouds
5:00 PM 85 °F - 75 °F 65% 29.87 in 16 mi East 16.1 mph - -   Partly Cloudy
5:00 PM 84.2 °F 92.3 °F 75.2 °F 74% 29.86 in 6.2 mi East 18.4 mph - N/A   Scattered Clouds
6:00 PM 82.4 °F 89.5 °F 75.2 °F 79% 29.86 in 6.2 mi East 16.1 mph - N/A   Partly Cloudy
7:00 PM 80.6 °F 86.2 °F 75.2 °F 84% 29.86 in 6.2 mi East 16.1 mph - N/A   Partly Cloudy
8:00 PM 80 °F - 74 °F 78% 29.89 in 16 mi East 17.3 mph - -   Scattered Clouds
8:00 PM 80.6 °F 86.2 °F 75.2 °F 84% 29.89 in 6.2 mi East 17.3 mph - N/A   Partly Cloudy
9:00 PM 80.6 °F 86.2 °F 75.2 °F 84% 29.92 in 6.2 mi East 17.3 mph - N/A   Partly Cloudy
10:00 PM 80.6 °F 86.2 °F 75.2 °F 84% 29.95 in 6.2 mi East 13.8 mph - N/A   Mostly Cloudy
11:00 PM 80 °F - 75 °F 80% 29.96 in 16 mi East 15.0 mph - -   Mostly Cloudy
11:00 PM 80.6 °F 86.2 °F 75.2 °F 84% 29.95 in 6.2 mi East 13.8 mph - N/A   Mostly Cloudy